Stillwater, OK

9:08 PM CST on November 20, 2017 (GMT -0600)
Stillwater Municipal

Weather History for KSWO - November, 2013

Change the Weather History Date:

Wednesday, November 13, 2013

  Actual Average Record
Temperature  
Mean Temperature 35 °F -  
Max Temperature 54 °F 58 °F 82 °F (1999)
Min Temperature 16 °F 38 °F 16 °F (2013)
Degree Days  
Heating Degree Days 30    
Moisture  
Dew Point 17 °F    
Average Humidity 55    
Maximum Humidity 92    
Minimum Humidity 17    
Precipitation  
Precipitation 0.00 in - - ()
Sea Level Pressure  
Sea Level Pressure 30.52 in    
Wind  
Wind Speed 5 mph (South)    
Max Wind Speed 13 mph    
Max Gust Speed 20 mph    
Visibility 10 miles    
Events      
Averages and records for this station are not official NWS values.
T = Trace of Precipitation, MM = Missing Value Source: NWS Daily Summary

Daily Weather History Graph

Daily Weather History Graph

Search for Another Location

Airport or City:

Trip Planner

Search our weather history database for the weather conditions in past years. The results will help you decide how hot, cold, wet, or windy it might be!

Date:

Astronomy

Nov. 13, 2013 Rise Set
Actual Time 7:03 AM CST 5:21 PM CST
Civil Twilight 6:36 AM CST 5:48 PM CST
Nautical Twilight 6:05 AM CST 6:19 PM CST
Astronomical Twilight 5:34 AM CST 6:50 PM CST
Moon 3:03 PM CST (11/13) 3:04 AM CST (11/13)
Length of Visible Light 11h 12m
Length of Day
10h 18m
Waxing Gibbous, 85% of the Moon is Illuminated
Nov 13
Waxing Gibbous
Nov 17
Full
Nov 25
Last Quarter
Dec 2
New
Dec 9
First Quarter

Hourly Weather History & Observations

Time (CST) Temp. Windchill Dew Point Humidity Pressure Visibility Wind Dir Wind Speed Gust Speed Precip Events Conditions
12:53 AM 19.0 °F - 15.1 °F 85% 30.72 in 10.0 mi Calm Calm - N/A   Clear
1:53 AM 18.0 °F - 14.0 °F 84% 30.71 in 10.0 mi Calm Calm - N/A   Clear
2:53 AM 18.0 °F - 14.0 °F 84% 30.72 in 10.0 mi Calm Calm - N/A   Clear
3:53 AM 16.0 °F - 12.9 °F 88% 30.70 in 10.0 mi Calm Calm - N/A   Clear
4:53 AM 17.1 °F - 15.1 °F 92% 30.68 in 10.0 mi Calm Calm - N/A   Clear
5:53 AM 16.0 °F - 12.0 °F 84% 30.67 in 10.0 mi Calm Calm - N/A   Clear
6:53 AM 18.0 °F - 14.0 °F 84% 30.66 in 10.0 mi Calm Calm - N/A   Clear
7:53 AM 24.1 °F 19.7 °F 19.0 °F 81% 30.65 in 10.0 mi SE 3.5 mph - N/A   Clear
8:53 AM 32.0 °F 24.8 °F 24.1 °F 73% 30.65 in 10.0 mi South 8.1 mph - N/A   Clear
9:53 AM 37.0 °F 29.3 °F 19.9 °F 50% 30.63 in 10.0 mi South 11.5 mph - N/A   Clear
10:53 AM 43.0 °F 37.2 °F 16.0 °F 34% 30.60 in 10.0 mi SSW 10.4 mph - N/A   Clear
11:53 AM 48.0 °F - 16.0 °F 28% 30.56 in 10.0 mi South 9.2 mph - N/A   Clear
12:53 PM 52.0 °F - 14.0 °F 22% 30.51 in 10.0 mi South 12.7 mph - N/A   Clear
1:53 PM 53.1 °F - 10.9 °F 19% 30.46 in 10.0 mi South 11.5 mph 19.6 mph N/A   Clear
2:53 PM 54.0 °F - 10.0 °F 17% 30.43 in 10.0 mi South 12.7 mph 18.4 mph N/A   Clear
3:53 PM 53.1 °F - 12.0 °F 20% 30.40 in 10.0 mi South 12.7 mph - N/A   Clear
4:53 PM 48.9 °F - 15.1 °F 26% 30.37 in 10.0 mi South 10.4 mph - N/A   Clear
5:53 PM 42.1 °F 37.1 °F 17.1 °F 37% 30.36 in 10.0 mi South 8.1 mph - N/A   Clear
6:53 PM 37.9 °F 32.1 °F 19.0 °F 47% 30.36 in 10.0 mi South 8.1 mph - N/A   Clear
7:53 PM 37.0 °F 30.4 °F 19.9 °F 50% 30.35 in 10.0 mi South 9.2 mph - N/A   Clear
8:53 PM 37.9 °F 32.1 °F 21.9 °F 53% 30.33 in 10.0 mi South 8.1 mph - N/A   Clear
9:53 PM 39.0 °F 32.3 °F 23.0 °F 53% 30.32 in 10.0 mi South 10.4 mph - N/A   Clear
10:53 PM 37.0 °F 29.3 °F 24.1 °F 59% 30.30 in 10.0 mi South 11.5 mph - N/A   Clear
11:53 PM 37.0 °F 29.3 °F 24.1 °F 59% 30.27 in 10.0 mi South 11.5 mph - N/A   Clear